[[{"header":{"parameterUnit":"m.s-1","parameterCategory":1,"la1":30.2991,"la2":30.254,"lo1":-89.0895,"lo2":-89.0444,"dy":0.0017,"dx":0.0017,"nx":28,"ny":28,"refTime":"2024-06-06T09:00:00:Z","depth":0,"parameterNumber":2,"parameterNumberName":"U-component_of_WINDS"},"data":[0,0,0,0,0,0,0,0,0,0,0,0,0,0,0,0,0,0,0,0,0,0,0,0,0,0,0,0,0,0,0,0,0,0,0,0,0,0,0,0,0,0,0,0,0,0,0,0,0,0,0,0,0,0,0,0,0,0,-0.0076,-0.0077,0,-0.014,-0.0141,-0.0141,-0.0276,-0.0278,-0.0281,-0.0284,-0.0343,-0.0342,-0.0341,0,0,0,0,0,0,0,0,0,0,0,0,0,-0.0065,-0.0064,-0.0076,-0.0077,-0.0078,-0.014,-0.0141,-0.0141,-0.0275,-0.0278,-0.0282,-0.0285,-0.0343,-0.0342,-0.0341,0,0,0,0,0,0,0,0,0,0,0,0,0,-0.0093,-0.0064,-0.0076,-0.0152,-0.0159,-0.014,-0.0141,-0.0142,-0.0274,-0.0278,-0.0283,-0.0286,-0.0344,-0.0342,-0.0341,-0.0251,0,0,-0.0337,-0.0336,0,0,0,0,0,0,0,0,-0.0091,-0.0093,-0.014,-0.0147,-0.0155,-0.0204,-0.0159,-0.0178,-0.0273,-0.023,-0.0284,-0.0288,-0.0293,-0.0296,-0.0299,-0.0254,-0.0256,-0.0337,-0.0336,-0.0335,-0.0335,0,0,0,0,0,0,0,-0.0089,-0.0091,-0.0101,-0.014,-0.015,-0.0181,-0.019,-0.0163,-0.0238,-0.0235,-0.0244,-0.025,-0.0298,-0.03,-0.0301,-0.0257,-0.0337,-0.0335,-0.0335,-0.0334,-0.0139,-0.0135,0,0,0,0,0,0,-0.0077,-0.0089,-0.0099,-0.0103,-0.0133,-0.0178,-0.0188,-0.0184,-0.0239,-0.0251,-0.0247,-0.0257,-0.0301,-0.0303,-0.0304,-0.02,-0.0335,-0.0334,-0.0333,-0.0143,-0.0138,-0.0133,0,0,0,0,0,0,-0.0076,-0.0076,-0.0097,-0.0099,-0.0104,-0.0174,-0.0169,-0.0183,-0.0185,-0.0248,-0.0262,-0.0235,-0.0304,-0.0306,-0.0263,-0.0204,-0.0333,-0.0332,-0.0148,-0.0141,-0.0135,0.0008,0,0,0,0,0,0,-0.0075,-0.0075,-0.0043,-0.0097,-0.0103,-0.0055,-0.0165,-0.0181,-0.0183,-0.0196,-0.0241,-0.0252,-0.0307,-0.0264,-0.0261,-0.0204,-0.0331,-0.0154,-0.0145,-0.0138,-0.0002,0.0019,0.0037,0,0,0,0,0,-0.0074,0.0001,-0.004,-0.0041,-0.0064,-0.0052,-0.0055,-0.0121,-0.0178,-0.0145,-0.0185,-0.0251,-0.0212,-0.0259,-0.0257,-0.0198,-0.0158,-0.0148,-0.0138,-0.0011,0.0015,0.0036,0,0,0,0,0,0,0.0066,-0.0007,-0.0054,0.0005,-0.0016,-0.0075,-0.0035,-0.0093,-0.0097,-0.0109,-0.019,-0.0198,-0.0144,-0.0168,-0.0219,-0.0113,-0.0195,-0.0184,-0.0099,-0.0075,-0.0056,-0.005,-0.033,0,0,0,0,0,0.0103,0.0118,0.0053,0.0112,0.0104,0.0037,0.0039,-0.001,-0.0035,-0.0044,-0.0081,-0.0101,-0.0094,-0.0086,-0.0083,-0.0008,-0.0018,0.0034,0.0053,0.0069,0.0081,0.0121,0.0144,-0.0101,-0.0101,-0.0101,0,0,0.0182,0.0144,0.0158,0.014,0.0117,0.0136,0.003,0.0054,0.0068,-0.004,-0.0001,-0.0029,-0.0057,0.0004,0.0028,-0.0014,0.0146,0.0082,0.0095,0.0098,0.0134,0.0157,0.0178,-0.0094,-0.0096,-0.0097,0,0,0.0335,0.0306,0.0353,0.0332,0.0299,0.0253,0.0265,0.0215,0.0192,0.0228,0.0149,0.0164,0.0179,0.0163,0.0157,0.0304,0.0244,0.0307,0.041,0.045,0.0469,0.0486,0.0541,0.0562,0.0317,0.0318,0.0318,0,0.0438,0.0461,0.0385,0.0414,0.041,0.031,0.0358,0.0342,0.0313,0.0313,0.0264,0.0281,0.0255,0.0312,0.0348,0.0345,0.0358,0.0313,0.0472,0.0488,0.0503,0.0555,0.0575,0.0326,0.0325,0.0324,0.0323,0,0.059,0.0608,0.065,0.0622,0.0621,0.066,0.0592,0.0601,0.0551,0.0512,0.0551,0.0516,0.0512,0.0521,0.0473,0.0571,0.0546,0.0486,0.0403,0.0536,0.0583,0.0602,0.0338,0.0335,0.0332,0.033,0,0,0.0833,0.0761,0.0778,0.0765,0.072,0.0734,0.0768,0.0762,0.0773,0.0755,0.0784,0.0798,0.0742,0.0736,0.0685,0.072,0.0842,0.0655,0.0654,0.0694,0.0951,0.0999,0.1023,0.08,0.0804,0.0806,0.0954,0,0.0978,0.1032,0.0965,0.1034,0.1051,0.0956,0.0986,0.0964,0.0928,0.0938,0.0898,0.091,0.0834,0.083,0.086,0.0821,0.0893,0.0808,0.083,0.0832,0.0843,0.1047,0.1098,0.1239,0.0972,0.0975,0.0977,0,0.1156,0.1146,0.1217,0.1168,0.1173,0.1201,0.1191,0.12,0.1173,0.1144,0.1137,0.1075,0.1108,0.1024,0.1069,0.1014,0.1018,0.1,0.1004,0.1006,0.0915,0.1059,0.1282,0.1305,0.1005,0.1003,0.1001,0,0.133,0.1333,0.1377,0.1368,0.1311,0.1334,0.1312,0.128,0.1281,0.1272,0.1272,0.1268,0.1267,0.1266,0.1206,0.1149,0.126,0.117,0.124,0.1242,0.127,0.127,0.1502,0.1268,0.1267,0.1267,0.1266,0,0.1502,0.155,0.1454,0.1482,0.1533,0.1455,0.1508,0.1477,0.1449,0.147,0.1387,0.1409,0.1327,0.134,0.1293,0.134,0.1339,0.1319,0.1307,0.1328,0.1332,0.1333,0.1323,0.1272,0.1271,0.127,0.1269,0,0.1706,0.1643,0.1685,0.1627,0.1614,0.1655,0.1607,0.1631,0.1588,0.1616,0.1618,0.1552,0.1564,0.1502,0.1504,0.1472,0.1544,0.1513,0.1553,0.1545,0.1619,0.1615,0.1863,0.1893,0.1637,0.1639,0.1641,0,0.1822,0.1856,0.1802,0.1809,0.1791,0.1803,0.1803,0.1728,0.1732,0.1703,0.1731,0.1735,0.1735,0.1759,0.1713,0.1714,0.1685,0.1771,0.1685,0.1706,0.169,0.1691,0.1695,0.1791,0.1794,0.1797,0.1799,0,0.2034,0.2001,0.2004,0.1996,0.1998,0.1988,0.1974,0.1985,0.1903,0.1912,0.1922,0.1922,0.1922,0.1929,0.192,0.1899,0.1838,0.1826,0.1843,0.1868,0.1891,0.1883,0.1607,0.1822,0.1819,0.1818,0.1816,0.1816,0.22,0.2227,0.2193,0.2199,0.2179,0.2167,0.2187,0.2146,0.2153,0.2147,0.2101,0.2121,0.2093,0.2075,0.206,0.2075,0.2035,0.2058,0.2065,0.2073,0.2087,0.1885,0.2073,0.2072,0.2072,0.2071,0.207,0,0.2411,0.2384,0.239,0.2371,0.2377,0.2314,0.2294,0.2304,0.2321,0.2299,0.23,0.2313,0.2319,0.2273,0.2273,0.2295,0.2267,0.2298,0.2298,0.2295,0.2122,0.2109,0.2321,0.2321,0.2321,0.2321,0.2321,0.2321,0.2522,0.2565,0.2529,0.2562,0.2534,0.2552,0.2546,0.2536,0.2518,0.2535,0.2539,0.2508,0.2477,0.2475,0.2478,0.2464,0.247,0.2512,0.249,0.233,0.2306,0.2283,0.2271,0.2513,0.2513,0.2661,0.2662,0.2663]},{"header":{"parameterUnit":"m.s-1","parameterCategory":1,"la1":30.2991,"la2":30.254,"lo1":-89.0895,"lo2":-89.0444,"dy":0.0017,"dx":0.0017,"nx":28,"ny":28,"refTime":"2024-06-06T09:00:00:Z","depth":0,"parameterNumber":3,"parameterNumberName":"V-component_of_WINDS"},"data":[0,0,0,0,0,0,0,0,0,0,0,0,0,0,0,0,0,0,0,0,0,0,0,0,0,0,0,0,0,0,0,0,0,0,0,0,0,0,0,0,0,0,0,0,0,0,0,0,0,0,0,0,0,0,0,0,0,0,-0.5653,-0.5652,0,-0.5547,-0.5546,-0.5545,-0.553,-0.5531,-0.5532,-0.5533,-0.542,-0.5416,-0.5412,0,0,0,0,0,0,0,0,0,0,0,0,0,-0.5837,-0.5834,-0.5653,-0.5652,-0.565,-0.5547,-0.5546,-0.5545,-0.553,-0.5531,-0.5532,-0.5533,-0.5421,-0.5417,-0.5412,0,0,0,0,0,0,0,0,0,0,0,0,0,-0.5747,-0.5833,-0.5653,-0.5631,-0.5628,-0.5548,-0.5546,-0.5544,-0.5529,-0.5531,-0.5532,-0.5534,-0.5423,-0.5417,-0.5411,-0.5345,0,0,-0.5393,-0.5391,0,0,0,0,0,0,0,0,-0.5752,-0.574,-0.5635,-0.5632,-0.5629,-0.5553,-0.557,-0.5477,-0.5529,-0.5566,-0.5533,-0.5534,-0.5463,-0.5454,-0.5431,-0.534,-0.5335,-0.5393,-0.5389,-0.5387,-0.5385,0,0,0,0,0,0,0,-0.5758,-0.5744,-0.5611,-0.5634,-0.563,-0.5624,-0.5613,-0.5552,-0.5507,-0.5563,-0.5562,-0.555,-0.5461,-0.5436,-0.5428,-0.5334,-0.5393,-0.5388,-0.5384,-0.5382,-0.5181,-0.518,0,0,0,0,0,0,-0.5769,-0.575,-0.5614,-0.5608,-0.5695,-0.562,-0.5607,-0.5576,-0.5508,-0.5499,-0.5549,-0.555,-0.5446,-0.5435,-0.5424,-0.534,-0.5387,-0.5381,-0.5378,-0.5183,-0.5181,-0.5179,0,0,0,0,0,0,-0.5773,-0.5757,-0.5619,-0.5678,-0.566,-0.5615,-0.558,-0.5573,-0.5548,-0.5497,-0.5489,-0.5532,-0.5446,-0.5432,-0.5365,-0.5336,-0.5379,-0.5373,-0.5185,-0.5182,-0.518,-0.5174,0,0,0,0,0,0,-0.5778,-0.5759,-0.5734,-0.5678,-0.5657,-0.5563,-0.5578,-0.557,-0.5538,-0.5539,-0.5479,-0.547,-0.5446,-0.5374,-0.5359,-0.5329,-0.5369,-0.5187,-0.5184,-0.5181,-0.5176,-0.5171,-0.5167,0,0,0,0,0,-0.5785,-0.5737,-0.5733,-0.5717,-0.5626,-0.5561,-0.5549,-0.5524,-0.5536,-0.551,-0.5478,-0.5472,-0.5342,-0.5367,-0.535,-0.5318,-0.5189,-0.5185,-0.5181,-0.5178,-0.5172,-0.5167,0,0,0,0,0,0,-0.5789,-0.5729,-0.5724,-0.5657,-0.5614,-0.5559,-0.5526,-0.5518,-0.5471,-0.5473,-0.5442,-0.5428,-0.5362,-0.5333,-0.5362,-0.5249,-0.5266,-0.5259,-0.527,-0.5264,-0.5259,-0.5267,-0.5364,0,0,0,0,0,-0.5783,-0.5737,-0.5686,-0.5631,-0.561,-0.5572,-0.5542,-0.5526,-0.5481,-0.5462,-0.5425,-0.5379,-0.5328,-0.5295,-0.5245,-0.5173,-0.5158,-0.5142,-0.5137,-0.5134,-0.5127,-0.5084,-0.5076,-0.5166,-0.5166,-0.5166,0,0,-0.5768,-0.5729,-0.5702,-0.563,-0.5596,-0.5547,-0.5556,-0.5505,-0.5467,-0.5454,-0.5388,-0.5359,-0.5306,-0.5235,-0.5202,-0.5209,-0.5099,-0.5129,-0.5126,-0.5121,-0.5079,-0.5071,-0.5063,-0.5163,-0.5163,-0.5164,0,0,-0.5716,-0.5683,-0.5632,-0.5598,-0.5545,-0.552,-0.5508,-0.5454,-0.5434,-0.5367,-0.5356,-0.531,-0.5223,-0.5185,-0.5155,-0.5087,-0.508,-0.5072,-0.5046,-0.5005,-0.4998,-0.4991,-0.4965,-0.4956,-0.5066,-0.5066,-0.5066,0,-0.5703,-0.5631,-0.5607,-0.5555,-0.5523,-0.551,-0.5457,-0.5424,-0.5358,-0.5335,-0.5345,-0.5234,-0.5198,-0.5117,-0.5101,-0.5077,-0.506,-0.5078,-0.5001,-0.4994,-0.4988,-0.4962,-0.4953,-0.5065,-0.5065,-0.5065,-0.5065,0,-0.5617,-0.5567,-0.5532,-0.5469,-0.5433,-0.5381,-0.5348,-0.5314,-0.5301,-0.5274,-0.5206,-0.5162,-0.5102,-0.5082,-0.5069,-0.4998,-0.5004,-0.5008,-0.5024,-0.4979,-0.4954,-0.4944,-0.5064,-0.5064,-0.5064,-0.5064,0,0,-0.5563,-0.5488,-0.5476,-0.5446,-0.5388,-0.5347,-0.5294,-0.5236,-0.5207,-0.5162,-0.5114,-0.5041,-0.5043,-0.5009,-0.4991,-0.4955,-0.4901,-0.4963,-0.4961,-0.4951,-0.4818,-0.4814,-0.4803,-0.4897,-0.4895,-0.4893,-0.4822,0,-0.5503,-0.5409,-0.5385,-0.5304,-0.5256,-0.5243,-0.5196,-0.5153,-0.5127,-0.5081,-0.5051,-0.4998,-0.5007,-0.4985,-0.495,-0.4916,-0.4874,-0.4921,-0.485,-0.4848,-0.4861,-0.4791,-0.4787,-0.4721,-0.4812,-0.4811,-0.481,0,-0.5419,-0.5372,-0.5287,-0.5233,-0.5212,-0.517,-0.5115,-0.5072,-0.5023,-0.5006,-0.4967,-0.4952,-0.4894,-0.4915,-0.4832,-0.4865,-0.4835,-0.4813,-0.481,-0.4801,-0.4824,-0.4777,-0.47,-0.4689,-0.4794,-0.4796,-0.4797,0,-0.5385,-0.5302,-0.5239,-0.5215,-0.5151,-0.5122,-0.5093,-0.5046,-0.5013,-0.4964,-0.4941,-0.4886,-0.4855,-0.4811,-0.4781,-0.48,-0.4701,-0.472,-0.4682,-0.4683,-0.466,-0.4662,-0.4575,-0.4645,-0.4645,-0.4645,-0.4646,0,-0.5319,-0.5266,-0.5223,-0.5184,-0.5124,-0.5097,-0.5038,-0.5009,-0.4967,-0.4921,-0.4906,-0.4863,-0.4827,-0.4778,-0.4755,-0.4688,-0.4675,-0.4658,-0.4652,-0.4658,-0.466,-0.4636,-0.4639,-0.4643,-0.4643,-0.4644,-0.4644,0,-0.527,-0.524,-0.517,-0.5116,-0.5101,-0.5059,-0.5011,-0.4972,-0.4945,-0.4887,-0.4871,-0.4828,-0.477,-0.4736,-0.4663,-0.4647,-0.4572,-0.457,-0.4589,-0.4586,-0.455,-0.4553,-0.4443,-0.4426,-0.451,-0.4509,-0.4508,0,-0.5229,-0.5188,-0.5129,-0.5098,-0.507,-0.5019,-0.4985,-0.4957,-0.4921,-0.4862,-0.4829,-0.477,-0.4721,-0.4628,-0.4589,-0.4532,-0.4526,-0.4491,-0.4517,-0.4524,-0.4522,-0.4524,-0.4518,-0.4486,-0.4485,-0.4485,-0.4484,0,-0.5157,-0.5144,-0.5096,-0.5042,-0.5002,-0.4958,-0.4914,-0.4888,-0.4852,-0.4813,-0.4753,-0.4716,-0.464,-0.4581,-0.452,-0.4489,-0.4479,-0.4477,-0.4465,-0.4469,-0.4481,-0.4472,-0.4574,-0.4479,-0.4479,-0.448,-0.448,-0.448,-0.5109,-0.5071,-0.5024,-0.497,-0.4935,-0.4894,-0.4854,-0.4822,-0.4772,-0.471,-0.4696,-0.4632,-0.4582,-0.4501,-0.4468,-0.4417,-0.4422,-0.4406,-0.4401,-0.4396,-0.4394,-0.4492,-0.4406,-0.4406,-0.4406,-0.4406,-0.4406,0,-0.5034,-0.5003,-0.4954,-0.4894,-0.4851,-0.4848,-0.4799,-0.4762,-0.4707,-0.4663,-0.4615,-0.4546,-0.4488,-0.4444,-0.4385,-0.4352,-0.4345,-0.4337,-0.4337,-0.433,-0.4393,-0.4409,-0.4342,-0.4342,-0.4342,-0.4342,-0.4342,-0.4342,-0.499,-0.4926,-0.4907,-0.4824,-0.4792,-0.4731,-0.4703,-0.4664,-0.4628,-0.4552,-0.4504,-0.4477,-0.4432,-0.4368,-0.4314,-0.4303,-0.428,-0.4272,-0.4259,-0.4319,-0.4326,-0.4332,-0.4346,-0.4268,-0.4268,-0.4199,-0.4199,-0.4198]}]]